Fort Stockton, TX

4:06 AM CST on December 09, 2016 (GMT -0600)
Fort Stockton-Pecos County

Weather History for KFST - July, 2013

Change the Weather History Date:

Saturday, July 20, 2013

  Actual Average Record
Temperature  
Mean Temperature 78 °F -  
Max Temperature 87 °F 93 °F 102 °F (2004)
Min Temperature 71 °F 69 °F 68 °F (2003)
Cooling Degree Days 14    
Growing Degree Days 28 (Base 50)    
Moisture  
Dew Point 63 °F    
Average Humidity 63    
Maximum Humidity 78    
Minimum Humidity 43    
Precipitation  
Precipitation 0.00 in - - ()
Sea Level Pressure  
Sea Level Pressure 29.87 in    
Wind  
Wind Speed 9 mph (SSE)    
Max Wind Speed 18 mph    
Max Gust Speed 25 mph    
Visibility 10 miles    
Events      
Averages and records for this station are not official NWS values.
T = Trace of Precipitation, MM = Missing Value Source: NWS Daily Summary

Daily Weather History Graph

Daily Weather History Graph

Search for Another Location

Airport or City:

Trip Planner

Search our weather history database for the weather conditions in past years. The results will help you decide how hot, cold, wet, or windy it might be!

Date:

Astronomy

Jul. 20, 2013 Rise Set
Actual Time 7:01 AM CDT 8:53 PM CDT
Civil Twilight 6:34 AM CDT 9:20 PM CDT
Nautical Twilight 6:02 AM CDT 9:53 PM CDT
Astronomical Twilight 5:27 AM CDT 10:27 PM CDT
Moon 7:00 PM CDT (7/20) 4:43 AM CDT (7/20)
Length of Visible Light 14h 45m
Length of Day
13h 52m
Waxing Gibbous, 94% of the Moon is Illuminated
Jul 20
Waxing Gibbous
Jul 22
Full
Jul 29
Last Quarter
Aug 6
New
Aug 14
First Quarter

Hourly Weather History & Observations

Time (CDT) Temp. Heat Index Dew Point Humidity Pressure Visibility Wind Dir Wind Speed Gust Speed Precip Events Conditions
12:53 AM 73.9 °F - 63.0 °F 68% 29.94 in 10.0 mi ESE 5.8 mph - N/A   Mostly Cloudy
1:53 AM 73.9 °F - 63.0 °F 68% 29.92 in 10.0 mi ESE 5.8 mph - N/A   Clear
2:53 AM 72.0 °F - 63.0 °F 73% 29.90 in 10.0 mi Calm Calm - N/A   Clear
3:53 AM 72.0 °F - 64.0 °F 76% 29.88 in 10.0 mi SE 4.6 mph - N/A   Clear
4:53 AM 72.0 °F - 64.0 °F 76% 29.87 in 10.0 mi SE 4.6 mph - N/A   Clear
5:53 AM 71.1 °F - 64.0 °F 78% 29.88 in 10.0 mi ESE 5.8 mph - N/A   Clear
6:53 AM 71.1 °F - 64.0 °F 78% 29.88 in 10.0 mi SE 8.1 mph - N/A   Clear
7:53 AM 72.0 °F - 64.9 °F 78% 29.89 in 10.0 mi SSE 6.9 mph - N/A   Clear
8:53 AM 73.9 °F - 66.0 °F 76% 29.91 in 10.0 mi SSE 9.2 mph - N/A   Clear
9:53 AM 77.0 °F - 66.0 °F 69% 29.91 in 10.0 mi SE 13.8 mph 19.6 mph N/A   Clear
10:53 AM 78.1 °F - 64.9 °F 64% 29.92 in 10.0 mi SSE 11.5 mph 20.7 mph N/A   Mostly Cloudy
11:53 AM 80.1 °F 81.7 °F 64.0 °F 58% 29.91 in 10.0 mi South 12.7 mph - N/A   Mostly Cloudy
12:53 PM 82.0 °F 83.4 °F 64.0 °F 54% 29.88 in 10.0 mi SE 11.5 mph - N/A   Overcast
1:53 PM 82.0 °F 83.4 °F 64.0 °F 54% 29.87 in 10.0 mi SE 13.8 mph 20.7 mph N/A   Mostly Cloudy
2:53 PM 84.9 °F 85.9 °F 63.0 °F 48% 29.85 in 10.0 mi SSE 15.0 mph - N/A   Partly Cloudy
3:53 PM 86.0 °F 86.3 °F 62.1 °F 44% 29.83 in 10.0 mi South 16.1 mph 24.2 mph N/A   Partly Cloudy
4:53 PM 86.0 °F 86.3 °F 62.1 °F 44% 29.82 in 10.0 mi SSE 15.0 mph 25.3 mph N/A   Partly Cloudy
5:53 PM 84.0 °F 83.8 °F 59.0 °F 43% 29.82 in 10.0 mi SSE 17.3 mph 24.2 mph N/A   Clear
6:53 PM 82.0 °F 82.4 °F 60.1 °F 47% 29.81 in 10.0 mi South 16.1 mph 23.0 mph N/A   Clear
7:53 PM 81.0 °F 81.7 °F 61.0 °F 50% 29.80 in 10.0 mi SSE 11.5 mph - N/A   Clear
8:53 PM 78.1 °F - 62.1 °F 58% 29.82 in 10.0 mi SSE 10.4 mph 23.0 mph N/A   Clear
9:53 PM 75.0 °F - 64.0 °F 69% 29.84 in 10.0 mi South 18.4 mph 24.2 mph N/A   Clear
10:53 PM 73.9 °F - 64.0 °F 71% 29.86 in 10.0 mi SSE 15.0 mph 20.7 mph N/A   Mostly Cloudy
11:53 PM 73.9 °F - 64.0 °F 71% 29.86 in 10.0 mi SSE 9.2 mph - 0.00 in   Mostly Cloudy